Time,TemperatureF,DewpointF,PressureIn,WindDirection,WindDirectionDegrees,WindSpeedMPH,WindSpeedGustMPH,Humidity,HourlyPrecipIn,Conditions,Clouds,dailyrainin,SoftwareType,DateUTC
2013-02-06 00:01:00,54.5,48.1,29.96,WSW,256,2.0,2.0,79,0.00,,,0.00,Wunderground v.1.15,2013-02-06 05:01:00,
2013-02-06 00:06:00,54.5,48.1,29.97,WSW,256,1.0,2.0,79,0.00,,,0.00,Wunderground v.1.15,2013-02-06 05:06:00,
2013-02-06 00:11:00,54.4,48.0,29.97,WSW,256,2.0,2.0,79,0.00,,,0.00,Wunderground v.1.15,2013-02-06 05:11:00,
2013-02-06 00:21:00,54.2,48.2,29.97,WSW,256,1.0,1.0,80,0.00,,,0.00,Wunderground v.1.15,2013-02-06 05:21:00,
2013-02-06 00:26:00,54.2,48.2,29.97,WSW,256,1.0,1.0,80,0.00,,,0.00,Wunderground v.1.15,2013-02-06 05:26:00,
2013-02-06 00:31:00,54.2,48.2,29.97,WSW,256,1.0,2.0,80,0.00,,,0.00,Wunderground v.1.15,2013-02-06 05:31:00,
2013-02-06 00:36:00,54.2,48.2,29.97,WSW,256,1.0,2.0,80,0.00,,,0.00,Wunderground v.1.15,2013-02-06 05:36:00,
2013-02-06 00:41:00,54.4,48.4,29.97,WSW,256,2.0,2.0,80,0.00,,,0.00,Wunderground v.1.15,2013-02-06 05:41:00,
2013-02-06 00:51:00,54.6,48.6,29.97,WSW,256,2.0,2.0,80,0.00,,,0.00,Wunderground v.1.15,2013-02-06 05:51:00,
2013-02-06 01:01:00,54.8,48.4,29.97,WSW,256,2.0,2.0,79,0.00,,,0.00,Wunderground v.1.15,2013-02-06 06:01:00,
2013-02-06 01:06:00,54.7,48.3,29.97,WSW,256,2.0,2.0,79,0.00,,,0.00,Wunderground v.1.15,2013-02-06 06:06:00,
2013-02-06 01:11:00,54.8,48.4,29.97,WSW,256,2.0,2.0,79,0.00,,,0.00,Wunderground v.1.15,2013-02-06 06:11:00,
2013-02-06 01:21:00,54.9,48.5,29.97,WSW,255,2.0,2.0,79,0.00,,,0.00,Wunderground v.1.15,2013-02-06 06:21:00,
2013-02-06 01:26:00,55.0,48.6,29.97,WSW,256,2.0,2.0,79,0.00,,,0.00,Wunderground v.1.15,2013-02-06 06:26:00,
2013-02-06 01:36:00,54.9,48.5,29.97,WSW,256,2.0,3.0,79,0.00,,,0.00,Wunderground v.1.15,2013-02-06 06:36:00,
2013-02-06 01:41:00,55.0,48.6,29.97,WSW,256,2.0,3.0,79,0.00,,,0.00,Wunderground v.1.15,2013-02-06 06:41:00,
2013-02-06 01:51:00,54.9,48.5,29.97,WSW,256,2.0,2.0,79,0.00,,,0.00,Wunderground v.1.15,2013-02-06 06:51:00,
2013-02-06 01:56:00,54.9,48.5,29.97,WSW,256,1.0,2.0,79,0.00,,,0.00,Wunderground v.1.15,2013-02-06 06:56:00,
2013-02-06 02:06:00,54.7,48.3,29.97,WSW,256,2.0,2.0,79,0.00,,,0.00,Wunderground v.1.15,2013-02-06 07:06:00,
2013-02-06 02:12:00,54.7,48.3,29.97,WSW,256,2.0,2.0,79,0.00,,,0.00,Wunderground v.1.15,2013-02-06 07:12:00,
2013-02-06 02:21:00,54.5,48.1,29.97,WSW,256,1.0,1.0,79,0.00,,,0.00,Wunderground v.1.15,2013-02-06 07:21:00,
2013-02-06 02:26:00,54.4,48.4,29.97,WSW,255,1.0,2.0,80,0.00,,,0.00,Wunderground v.1.15,2013-02-06 07:26:00,
2013-02-06 02:36:00,53.9,47.9,29.97,WSW,255,3.0,3.0,80,0.00,,,0.00,Wunderground v.1.15,2013-02-06 07:36:00,
2013-02-06 02:42:00,53.8,48.1,29.97,WSW,255,3.0,3.0,81,0.00,,,0.00,Wunderground v.1.15,2013-02-06 07:42:00,
2013-02-06 02:47:00,53.7,48.0,29.98,WSW,255,2.0,3.0,81,0.00,,,0.00,Wunderground v.1.15,2013-02-06 07:47:00,
2013-02-06 02:56:00,53.5,47.8,29.98,WSW,245,2.0,2.0,81,0.00,,,0.00,Wunderground v.1.15,2013-02-06 07:56:00,
2013-02-06 03:06:00,53.3,47.9,29.98,WSW,245,2.0,2.0,82,0.00,,,0.00,Wunderground v.1.15,2013-02-06 08:06:00,
2013-02-06 03:16:00,52.9,47.9,29.98,WSW,245,1.0,2.0,83,0.00,,,0.00,Wunderground v.1.15,2013-02-06 08:16:00,
2013-02-06 03:21:00,52.6,47.6,29.98,WSW,245,1.0,1.0,83,0.00,,,0.00,Wunderground v.1.15,2013-02-06 08:21:00,
2013-02-06 03:26:00,52.6,47.6,29.98,WSW,245,0.0,1.0,83,0.00,,,0.00,Wunderground v.1.15,2013-02-06 08:26:00,
2013-02-06 03:36:00,52.4,47.7,29.98,WSW,245,0.0,0.0,84,0.00,,,0.00,Wunderground v.1.15,2013-02-06 08:36:00,
2013-02-06 03:41:00,52.3,47.6,29.98,WSW,245,0.0,0.0,84,0.00,,,0.00,Wunderground v.1.15,2013-02-06 08:41:00,
2013-02-06 03:51:00,51.9,47.5,29.98,WSW,245,0.0,0.0,85,0.00,,,0.00,Wunderground v.1.15,2013-02-06 08:51:00,
2013-02-06 03:56:00,51.7,47.3,29.98,WSW,245,0.0,0.0,85,0.00,,,0.00,Wunderground v.1.15,2013-02-06 08:56:00,
2013-02-06 04:06:00,51.4,47.4,29.98,WSW,245,0.0,0.0,86,0.00,,,0.00,Wunderground v.1.15,2013-02-06 09:06:00,
2013-02-06 04:11:00,51.2,47.2,29.98,WSW,245,0.0,0.0,86,0.00,,,0.00,Wunderground v.1.15,2013-02-06 09:11:00,
2013-02-06 04:16:00,51.0,47.0,29.98,WSW,245,0.0,0.0,86,0.00,,,0.00,Wunderground v.1.15,2013-02-06 09:16:00,
2013-02-06 04:26:00,50.5,46.8,29.98,WSW,245,0.0,0.0,87,0.00,,,0.00,Wunderground v.1.15,2013-02-06 09:26:00,
2013-02-06 04:31:00,50.5,46.8,29.98,WSW,245,0.0,0.0,87,0.00,,,0.00,Wunderground v.1.15,2013-02-06 09:31:00,
2013-02-06 04:41:00,50.3,46.9,29.99,WSW,245,0.0,0.0,88,0.00,,,0.00,Wunderground v.1.15,2013-02-06 09:41:00,
2013-02-06 04:51:00,50.3,46.9,29.99,WSW,245,0.0,0.0,88,0.00,,,0.00,Wunderground v.1.15,2013-02-06 09:51:00,
2013-02-06 04:56:00,50.1,46.7,29.99,WSW,245,0.0,0.0,88,0.00,,,0.00,Wunderground v.1.15,2013-02-06 09:56:00,
2013-02-06 05:06:00,50.0,46.6,30.00,WSW,245,0.0,0.0,88,0.00,,,0.00,Wunderground v.1.15,2013-02-06 10:06:00,
2013-02-06 05:11:00,50.0,46.6,30.00,WSW,245,0.0,0.0,88,0.00,,,0.00,Wunderground v.1.15,2013-02-06 10:11:00,
2013-02-06 05:21:00,50.8,47.4,30.00,WSW,245,1.0,2.0,88,0.00,,,0.00,Wunderground v.1.15,2013-02-06 10:21:00,
2013-02-06 05:31:00,50.8,47.1,30.00,WSW,245,0.0,0.0,87,0.00,,,0.00,Wunderground v.1.15,2013-02-06 10:31:00,
2013-02-06 05:40:00,49.9,46.5,30.01,WSW,245,0.0,0.0,88,0.00,,,0.00,Wunderground v.1.15,2013-02-06 10:40:00,
2013-02-06 05:46:00,49.7,46.3,30.01,WSW,245,0.0,0.0,88,0.00,,,0.00,Wunderground v.1.15,2013-02-06 10:46:00,
2013-02-06 05:51:00,49.6,46.5,30.01,WSW,245,0.0,0.0,89,0.00,,,0.00,Wunderground v.1.15,2013-02-06 10:51:00,
2013-02-06 06:01:00,49.2,46.1,30.02,WSW,245,0.0,0.0,89,0.00,,,0.00,Wunderground v.1.15,2013-02-06 11:01:00,
2013-02-06 06:11:00,48.9,46.1,30.03,WSW,245,0.0,0.0,90,0.00,,,0.00,Wunderground v.1.15,2013-02-06 11:11:00,
2013-02-06 06:20:00,48.5,45.7,30.03,WSW,245,0.0,0.0,90,0.00,,,0.00,Wunderground v.1.15,2013-02-06 11:20:00,
2013-02-06 06:26:00,48.5,45.7,30.03,WSW,245,0.0,0.0,90,0.00,,,0.00,Wunderground v.1.15,2013-02-06 11:26:00,
2013-02-06 06:36:00,48.6,45.8,30.04,WSW,245,0.0,0.0,90,0.00,,,0.00,Wunderground v.1.15,2013-02-06 11:36:00,
2013-02-06 06:41:00,48.8,46.0,30.04,WSW,245,0.0,0.0,90,0.00,,,0.00,Wunderground v.1.15,2013-02-06 11:41:00,
2013-02-06 06:51:00,48.9,46.1,30.04,WSW,245,0.0,0.0,90,0.00,,,0.00,Wunderground v.1.15,2013-02-06 11:51:00,
2013-02-06 07:01:00,49.0,46.2,30.05,WSW,245,0.0,0.0,90,0.00,,,0.00,Wunderground v.1.15,2013-02-06 12:01:00,
2013-02-06 07:11:00,48.8,46.0,30.05,WSW,245,0.0,0.0,90,0.00,,,0.00,Wunderground v.1.15,2013-02-06 12:11:00,
2013-02-06 07:16:00,49.0,46.2,30.05,WSW,245,0.0,0.0,90,0.00,,,0.00,Wunderground v.1.15,2013-02-06 12:16:00,
2013-02-06 07:26:00,48.6,45.5,30.05,WSW,245,0.0,0.0,89,0.00,,,0.00,Wunderground v.1.15,2013-02-06 12:26:00,
2013-02-06 07:36:00,48.3,45.5,30.06,WSW,245,0.0,0.0,90,0.00,,,0.00,Wunderground v.1.15,2013-02-06 12:36:00,
2013-02-06 07:46:00,48.9,46.1,30.06,WSW,245,0.0,0.0,90,0.00,,,0.00,Wunderground v.1.15,2013-02-06 12:46:00,
2013-02-06 07:56:00,50.3,47.2,30.06,WSW,245,0.0,1.0,89,0.00,,,0.00,Wunderground v.1.15,2013-02-06 12:56:00,
2013-02-06 08:01:00,51.5,47.8,30.07,WSW,245,0.0,1.0,87,0.00,,,0.00,Wunderground v.1.15,2013-02-06 13:01:00,
2013-02-06 08:06:00,52.3,47.9,30.06,WNW,299,1.0,1.0,85,0.00,,,0.00,Wunderground v.1.15,2013-02-06 13:06:00,
2013-02-06 08:15:00,53.1,48.4,30.07,WNW,292,2.0,3.0,84,0.00,,,0.00,Wunderground v.1.15,2013-02-06 13:15:00,
2013-02-06 08:25:00,53.8,48.4,30.08,NW,324,2.0,3.0,82,0.00,,,0.00,Wunderground v.1.15,2013-02-06 13:25:00,
2013-02-06 08:30:00,54.0,48.6,30.08,NW,315,2.0,3.0,82,0.00,,,0.00,Wunderground v.1.15,2013-02-06 13:30:00,
2013-02-06 08:36:00,54.1,48.4,30.08,NW,316,2.0,3.0,81,0.00,,,0.00,Wunderground v.1.15,2013-02-06 13:36:00,
2013-02-06 08:41:00,54.3,48.6,30.08,WNW,291,2.0,2.0,81,0.00,,,0.00,Wunderground v.1.15,2013-02-06 13:41:00,
2013-02-06 08:51:00,55.1,49.0,30.08,NW,309,3.0,4.0,80,0.00,,,0.00,Wunderground v.1.15,2013-02-06 13:51:00,
2013-02-06 08:56:00,55.5,49.1,30.08,NW,313,3.0,4.0,79,0.00,,,0.00,Wunderground v.1.15,2013-02-06 13:56:00,
2013-02-06 09:06:00,56.3,49.2,30.09,NW,325,4.0,4.0,77,0.00,,,0.00,Wunderground v.1.15,2013-02-06 14:06:00,
2013-02-06 09:11:00,56.8,49.3,30.09,NW,324,4.0,4.0,76,0.00,,,0.00,Wunderground v.1.15,2013-02-06 14:11:00,
2013-02-06 09:16:00,56.8,49.0,30.09,NNW,335,4.0,4.0,75,0.00,,,0.00,Wunderground v.1.15,2013-02-06 14:16:00,
2013-02-06 09:26:00,57.4,49.2,30.09,NW,319,4.0,4.0,74,0.00,,,0.00,Wunderground v.1.15,2013-02-06 14:26:00,
2013-02-06 09:31:00,57.5,49.3,30.09,NNW,329,4.0,4.0,74,0.00,,,0.00,Wunderground v.1.15,2013-02-06 14:31:00,
2013-02-06 09:41:00,57.9,49.3,30.09,NW,317,3.0,3.0,73,0.00,,,0.00,Wunderground v.1.15,2013-02-06 14:41:00,
2013-02-06 09:46:00,58.4,49.4,30.09,NW,306,3.0,3.0,72,0.00,,,0.00,Wunderground v.1.15,2013-02-06 14:46:00,
2013-02-06 09:56:00,59.0,49.2,30.09,NNE,14,3.0,4.0,70,0.00,,,0.00,Wunderground v.1.15,2013-02-06 14:56:00,
2013-02-06 10:05:00,59.8,49.6,30.09,NW,322,3.0,3.0,69,0.00,,,0.00,Wunderground v.1.15,2013-02-06 15:05:00,
2013-02-06 10:11:00,60.4,49.8,30.10,North,360,3.0,5.0,68,0.00,,,0.00,Wunderground v.1.15,2013-02-06 15:11:00,
2013-02-06 10:20:00,61.3,50.6,30.10,NNE,28,4.0,4.0,68,0.00,,,0.00,Wunderground v.1.15,2013-02-06 15:20:00,
2013-02-06 10:26:00,61.6,49.3,30.10,NNW,340,3.0,4.0,64,0.00,,,0.00,Wunderground v.1.15,2013-02-06 15:26:00,
2013-02-06 10:35:00,61.3,49.4,30.10,NW,316,3.0,5.0,65,0.00,,,0.00,Wunderground v.1.15,2013-02-06 15:35:00,
2013-02-06 10:40:00,62.1,48.5,30.10,North,355,3.0,4.0,61,0.00,,,0.00,Wunderground v.1.15,2013-02-06 15:40:00,
2013-02-06 10:46:00,62.7,47.7,30.10,North,11,4.0,4.0,58,0.00,,,0.00,Wunderground v.1.15,2013-02-06 15:46:00,
2013-02-06 10:51:00,62.8,46.9,30.10,North,350,4.0,4.0,56,0.00,,,0.00,Wunderground v.1.15,2013-02-06 15:51:00,
2013-02-06 11:01:00,63.7,44.2,30.10,North,360,4.0,4.0,49,0.00,,,0.00,Wunderground v.1.15,2013-02-06 16:01:00,
2013-02-06 11:06:00,63.8,44.8,30.10,NNE,22,5.0,5.0,50,0.00,,,0.00,Wunderground v.1.15,2013-02-06 16:06:00,
2013-02-06 11:16:00,64.1,44.0,30.10,NNE,18,6.0,10.0,48,0.00,,,0.00,Wunderground v.1.15,2013-02-06 16:16:00,
2013-02-06 11:21:00,65.1,44.9,30.10,North,355,5.0,5.0,48,0.00,,,0.00,Wunderground v.1.15,2013-02-06 16:21:00,
2013-02-06 11:26:00,65.2,42.7,30.10,NE,55,5.0,10.0,44,0.00,,,0.00,Wunderground v.1.15,2013-02-06 16:26:00,
2013-02-06 11:36:00,64.4,42.0,30.10,NE,43,7.0,7.0,44,0.00,,,0.00,Wunderground v.1.15,2013-02-06 16:36:00,
2013-02-06 11:41:00,64.5,42.7,30.10,NNE,13,6.0,6.0,45,0.00,,,0.00,Wunderground v.1.15,2013-02-06 16:41:00,
2013-02-06 11:51:00,65.0,40.7,30.09,NW,324,4.0,4.0,41,0.00,,,0.00,Wunderground v.1.15,2013-02-06 16:51:00,
2013-02-06 11:56:00,65.0,41.3,30.09,NW,326,4.0,4.0,42,0.00,,,0.00,Wunderground v.1.15,2013-02-06 16:56:00,
2013-02-06 12:01:00,65.4,40.4,30.09,NW,313,3.0,3.0,40,0.00,,,0.00,Wunderground v.1.15,2013-02-06 17:01:00,
2013-02-06 12:11:00,65.8,40.1,30.09,NNE,13,3.0,4.0,39,0.00,,,0.00,Wunderground v.1.15,2013-02-06 17:11:00,
2013-02-06 12:16:00,65.4,39.8,30.09,NW,314,4.0,4.0,39,0.00,,,0.00,Wunderground v.1.15,2013-02-06 17:16:00,
2013-02-06 12:25:00,65.6,40.0,30.08,East,81,4.0,5.0,39,0.00,,,0.00,Wunderground v.1.15,2013-02-06 17:25:00,
2013-02-06 12:30:00,65.5,37.8,30.08,NNE,28,4.0,4.0,36,0.00,,,0.00,Wunderground v.1.15,2013-02-06 17:30:00,
2013-02-06 12:36:00,65.9,39.6,30.08,NE,38,3.0,4.0,38,0.00,,,0.00,Wunderground v.1.15,2013-02-06 17:36:00,
2013-02-06 12:41:00,65.7,38.7,30.08,NE,50,3.0,3.0,37,0.00,,,0.00,Wunderground v.1.15,2013-02-06 17:41:00,
2013-02-06 12:50:00,65.7,38.7,30.08,East,96,2.0,3.0,37,0.00,,,0.00,Wunderground v.1.15,2013-02-06 17:50:00,
2013-02-06 12:55:00,66.1,39.1,30.07,East,96,3.0,5.0,37,0.00,,,0.00,Wunderground v.1.15,2013-02-06 17:55:00,
2013-02-06 13:01:00,66.3,39.2,30.07,NE,40,3.0,3.0,37,0.00,,,0.00,Wunderground v.1.15,2013-02-06 18:01:00,
2013-02-06 13:06:00,66.3,38.5,30.07,NE,37,4.0,5.0,36,0.00,,,0.00,Wunderground v.1.15,2013-02-06 18:06:00,
2013-02-06 13:15:00,66.7,41.6,30.07,East,89,3.0,4.0,40,0.00,,,0.00,Wunderground v.1.15,2013-02-06 18:15:00,
2013-02-06 13:21:00,66.5,39.4,30.06,NNE,33,2.0,2.0,37,0.00,,,0.00,Wunderground v.1.15,2013-02-06 18:21:00,
2013-02-06 13:30:00,67.4,40.2,30.06,North,355,3.0,4.0,37,0.00,,,0.00,Wunderground v.1.15,2013-02-06 18:30:00,
2013-02-06 13:36:00,67.4,38.8,30.06,West,270,4.0,4.0,35,0.00,,,0.00,Wunderground v.1.15,2013-02-06 18:36:00,
2013-02-06 13:41:00,67.3,39.4,30.06,North,5,4.0,4.0,36,0.00,,,0.00,Wunderground v.1.15,2013-02-06 18:41:00,
2013-02-06 13:51:00,67.0,38.4,30.06,North,5,3.0,3.0,35,0.00,,,0.00,Wunderground v.1.15,2013-02-06 18:51:00,
2013-02-06 13:56:00,67.0,39.9,30.06,ENE,61,1.0,3.0,37,0.00,,,0.00,Wunderground v.1.15,2013-02-06 18:56:00,
2013-02-06 14:06:00,67.3,39.4,30.05,SW,221,2.0,3.0,36,0.00,,,0.00,Wunderground v.1.15,2013-02-06 19:06:00,
2013-02-06 14:11:00,67.9,39.9,30.05,SW,235,3.0,3.0,36,0.00,,,0.00,Wunderground v.1.15,2013-02-06 19:11:00,
2013-02-06 14:16:00,68.5,39.0,30.05,SW,231,3.0,3.0,34,0.00,,,0.00,Wunderground v.1.15,2013-02-06 19:16:00,
2013-02-06 14:26:00,68.5,38.2,30.05,WNW,296,2.0,2.0,33,0.00,,,0.00,Wunderground v.1.15,2013-02-06 19:26:00,
2013-02-06 14:31:00,68.3,39.6,30.05,WNW,296,2.0,5.0,35,0.00,,,0.00,Wunderground v.1.15,2013-02-06 19:31:00,
2013-02-06 14:36:00,68.3,38.1,30.05,WNW,297,4.0,5.0,33,0.00,,,0.00,Wunderground v.1.15,2013-02-06 19:36:00,
2013-02-06 14:46:00,68.3,38.8,30.05,NW,323,4.0,4.0,34,0.00,,,0.00,Wunderground v.1.15,2013-02-06 19:46:00,
2013-02-06 14:51:00,68.1,38.7,30.05,NW,319,4.0,6.0,34,0.00,,,0.00,Wunderground v.1.15,2013-02-06 19:51:00,
2013-02-06 14:56:00,68.3,39.6,30.05,NNW,338,3.0,6.0,35,0.00,,,0.00,Wunderground v.1.15,2013-02-06 19:56:00,
2013-02-06 15:06:00,68.1,37.1,30.05,NNE,30,2.0,3.0,32,0.00,,,0.00,Wunderground v.1.15,2013-02-06 20:06:00,
2013-02-06 15:16:00,68.7,39.2,30.05,North,355,2.0,2.0,34,0.00,,,0.00,Wunderground v.1.15,2013-02-06 20:16:00,
2013-02-06 15:21:00,69.1,38.8,30.05,North,355,1.0,1.0,33,0.00,,,0.00,Wunderground v.1.15,2013-02-06 20:21:00,
2013-02-06 15:31:00,68.6,38.3,30.06,ENE,67,2.0,2.0,33,0.00,,,0.00,Wunderground v.1.15,2013-02-06 20:31:00,
2013-02-06 15:36:00,68.4,38.2,30.05,ESE,102,2.0,2.0,33,0.00,,,0.00,Wunderground v.1.15,2013-02-06 20:36:00,
2013-02-06 15:46:00,67.9,38.5,30.05,ESE,121,2.0,2.0,34,0.00,,,0.00,Wunderground v.1.15,2013-02-06 20:46:00,
2013-02-06 15:51:00,67.9,38.5,30.05,SE,136,2.0,2.0,34,0.00,,,0.00,Wunderground v.1.15,2013-02-06 20:51:00,
2013-02-06 16:01:00,67.2,42.7,30.06,SE,132,3.0,5.0,41,0.00,,,0.00,Wunderground v.1.15,2013-02-06 21:01:00,
2013-02-06 16:11:00,66.5,42.1,30.06,SSE,161,7.0,7.0,41,0.00,,,0.00,Wunderground v.1.15,2013-02-06 21:11:00,
2013-02-06 16:16:00,66.5,43.3,30.06,South,172,7.0,7.0,43,0.00,,,0.00,Wunderground v.1.15,2013-02-06 21:16:00,
2013-02-06 16:21:00,66.4,42.6,30.06,SE,135,6.0,9.0,42,0.00,,,0.00,Wunderground v.1.15,2013-02-06 21:21:00,
2013-02-06 16:31:00,65.8,42.7,30.06,SSE,151,6.0,6.0,43,0.00,,,0.00,Wunderground v.1.15,2013-02-06 21:31:00,
2013-02-06 16:41:00,65.4,41.7,30.06,SSE,163,5.0,5.0,42,0.00,,,0.00,Wunderground v.1.15,2013-02-06 21:41:00,
2013-02-06 16:46:00,65.2,41.5,30.07,SE,145,5.0,5.0,42,0.00,,,0.00,Wunderground v.1.15,2013-02-06 21:46:00,
2013-02-06 16:55:00,64.7,39.8,30.07,SSE,154,4.0,6.0,40,0.00,,,0.00,Wunderground v.1.15,2013-02-06 21:55:00,
2013-02-06 17:00:00,64.5,38.3,30.07,SSE,164,4.0,4.0,38,0.00,,,0.00,Wunderground v.1.15,2013-02-06 22:00:00,
2013-02-06 17:11:00,63.9,38.4,30.07,SSE,164,5.0,5.0,39,0.00,,,0.00,Wunderground v.1.15,2013-02-06 22:11:00,
2013-02-06 17:20:00,63.4,39.3,30.07,South,184,4.0,4.0,41,0.00,,,0.00,Wunderground v.1.15,2013-02-06 22:20:00,
2013-02-06 17:25:00,63.1,39.6,30.08,South,174,3.0,4.0,42,0.00,,,0.00,Wunderground v.1.15,2013-02-06 22:25:00,
2013-02-06 17:31:00,62.9,40.6,30.08,SSE,152,3.0,4.0,44,0.00,,,0.00,Wunderground v.1.15,2013-02-06 22:31:00,
2013-02-06 17:36:00,62.5,42.0,30.08,SSE,160,4.0,4.0,47,0.00,,,0.00,Wunderground v.1.15,2013-02-06 22:36:00,
2013-02-06 17:41:00,62.0,42.1,30.08,SSE,157,4.0,5.0,48,0.00,,,0.00,Wunderground v.1.15,2013-02-06 22:41:00,
2013-02-06 17:50:00,61.2,42.9,30.09,SE,140,4.0,4.0,51,0.00,,,0.00,Wunderground v.1.15,2013-02-06 22:50:00,
2013-02-06 17:55:00,60.8,42.5,30.09,SE,138,4.0,4.0,51,0.00,,,0.00,Wunderground v.1.15,2013-02-06 22:55:00,
2013-02-06 18:01:00,60.4,42.7,30.10,SSE,151,3.0,3.0,52,0.00,,,0.00,Wunderground v.1.15,2013-02-06 23:01:00,
2013-02-06 18:10:00,59.9,42.7,30.10,SSE,151,2.0,2.0,53,0.00,,,0.00,Wunderground v.1.15,2013-02-06 23:10:00,
2013-02-06 18:16:00,59.5,42.8,30.10,SSE,151,1.0,2.0,54,0.00,,,0.00,Wunderground v.1.15,2013-02-06 23:16:00,
2013-02-06 18:26:00,57.8,42.7,30.10,SE,129,1.0,3.0,57,0.00,,,0.00,Wunderground v.1.15,2013-02-06 23:26:00,
2013-02-06 18:31:00,57.4,42.7,30.10,SE,129,1.0,2.0,58,0.00,,,0.00,Wunderground v.1.15,2013-02-06 23:31:00,
2013-02-06 18:40:00,56.9,43.2,30.11,ESE,122,1.0,3.0,60,0.00,,,0.00,Wunderground v.1.15,2013-02-06 23:40:00,
2013-02-06 18:45:00,56.9,43.2,30.11,ESE,113,2.0,3.0,60,0.00,,,0.00,Wunderground v.1.15,2013-02-06 23:45:00,
2013-02-06 18:51:00,56.7,43.4,30.11,ESE,107,2.0,3.0,61,0.00,,,0.00,Wunderground v.1.15,2013-02-06 23:51:00,
2013-02-06 19:01:00,55.7,43.3,30.12,ESE,103,1.0,1.0,63,0.00,,,0.00,Wunderground v.1.15,2013-02-07 00:01:00,
2013-02-06 19:06:00,55.3,43.3,30.12,ESE,103,1.0,1.0,64,0.00,,,0.00,Wunderground v.1.15,2013-02-07 00:06:00,
2013-02-06 19:15:00,54.9,44.1,30.13,ESE,103,1.0,1.0,67,0.00,,,0.00,Wunderground v.1.15,2013-02-07 00:15:00,
2013-02-06 19:21:00,54.6,44.6,30.13,ESE,103,0.0,2.0,69,0.00,,,0.00,Wunderground v.1.15,2013-02-07 00:21:00,
2013-02-06 19:31:00,53.9,45.1,30.13,East,101,0.0,0.0,72,0.00,,,0.00,Wunderground v.1.15,2013-02-07 00:31:00,
2013-02-06 19:36:00,53.8,45.3,30.13,East,101,0.0,0.0,73,0.00,,,0.00,Wunderground v.1.15,2013-02-07 00:36:00,
2013-02-06 19:46:00,53.5,45.4,30.13,East,101,0.0,0.0,74,0.00,,,0.00,Wunderground v.1.15,2013-02-07 00:46:00,
2013-02-06 19:51:00,53.3,45.9,30.13,East,101,0.0,0.0,76,0.00,,,0.00,Wunderground v.1.15,2013-02-07 00:51:00,
2013-02-06 19:56:00,53.2,45.8,30.14,East,101,0.0,0.0,76,0.00,,,0.00,Wunderground v.1.15,2013-02-07 00:56:00,
2013-02-06 20:06:00,52.9,46.2,30.14,East,101,0.0,0.0,78,0.00,,,0.00,Wunderground v.1.15,2013-02-07 01:06:00,
2013-02-06 20:11:00,52.7,46.0,30.14,East,101,0.0,0.0,78,0.00,,,0.00,Wunderground v.1.15,2013-02-07 01:11:00,
2013-02-06 20:16:00,52.6,46.3,30.14,East,101,0.0,0.0,79,0.00,,,0.00,Wunderground v.1.15,2013-02-07 01:16:00,
2013-02-06 20:26:00,52.0,46.0,30.14,East,101,0.0,0.0,80,0.00,,,0.00,Wunderground v.1.15,2013-02-07 01:26:00,
2013-02-06 20:31:00,50.9,44.9,30.15,East,101,0.0,0.0,80,0.00,,,0.00,Wunderground v.1.15,2013-02-07 01:31:00,
2013-02-06 20:41:00,50.8,45.5,30.15,East,101,0.0,0.0,82,0.00,,,0.00,Wunderground v.1.15,2013-02-07 01:41:00,
2013-02-06 20:46:00,50.8,45.5,30.15,East,101,0.0,0.0,82,0.00,,,0.00,Wunderground v.1.15,2013-02-07 01:46:00,
2013-02-06 20:51:00,50.8,45.5,30.15,East,101,0.0,0.0,82,0.00,,,0.00,Wunderground v.1.15,2013-02-07 01:51:00,
2013-02-06 21:00:00,50.2,45.2,30.15,East,101,0.0,0.0,83,0.00,,,0.00,Wunderground v.1.15,2013-02-07 02:00:00,
2013-02-06 21:06:00,49.9,45.3,30.15,East,101,0.0,0.0,84,0.00,,,0.00,Wunderground v.1.15,2013-02-07 02:06:00,
2013-02-06 21:11:00,49.6,45.3,30.15,East,101,0.0,0.0,85,0.00,,,0.00,Wunderground v.1.15,2013-02-07 02:11:00,
2013-02-06 21:21:00,48.6,44.9,30.15,East,101,0.0,0.0,87,0.00,,,0.00,Wunderground v.1.15,2013-02-07 02:21:00,
2013-02-06 21:31:00,48.0,44.3,30.15,East,101,0.0,0.0,87,0.00,,,0.00,Wunderground v.1.15,2013-02-07 02:31:00,
2013-02-06 21:36:00,47.4,44.0,30.15,East,101,0.0,0.0,88,0.00,,,0.00,Wunderground v.1.15,2013-02-07 02:36:00,
2013-02-06 21:46:00,47.4,44.3,30.15,East,101,0.0,0.0,89,0.00,,,0.00,Wunderground v.1.15,2013-02-07 02:46:00,
2013-02-06 21:56:00,47.3,44.5,30.15,East,101,0.0,0.0,90,0.00,,,0.00,Wunderground v.1.15,2013-02-07 02:56:00,
2013-02-06 22:01:00,47.2,44.4,30.14,East,101,0.0,0.0,90,0.00,,,0.00,Wunderground v.1.15,2013-02-07 03:01:00,
2013-02-06 22:11:00,47.1,44.3,30.14,East,101,0.0,0.0,90,0.00,,,0.00,Wunderground v.1.15,2013-02-07 03:11:00,
2013-02-06 22:21:00,46.9,44.1,30.15,East,101,0.0,0.0,90,0.00,,,0.00,Wunderground v.1.15,2013-02-07 03:21:00,
2013-02-06 22:31:00,46.7,44.2,30.15,East,101,0.0,0.0,91,0.00,,,0.00,Wunderground v.1.15,2013-02-07 03:31:00,
2013-02-06 22:36:00,46.9,44.4,30.15,East,101,0.0,0.0,91,0.00,,,0.00,Wunderground v.1.15,2013-02-07 03:36:00,
2013-02-06 22:46:00,46.7,44.2,30.15,East,101,0.0,0.0,91,0.00,,,0.00,Wunderground v.1.15,2013-02-07 03:46:00,
2013-02-06 22:51:00,46.4,43.9,30.16,East,101,0.0,0.0,91,0.00,,,0.00,Wunderground v.1.15,2013-02-07 03:51:00,
2013-02-06 23:01:00,46.7,44.5,30.16,East,101,0.0,0.0,92,0.00,,,0.00,Wunderground v.1.15,2013-02-07 04:01:00,
2013-02-06 23:06:00,46.7,44.5,30.16,East,101,0.0,0.0,92,0.00,,,0.00,Wunderground v.1.15,2013-02-07 04:06:00,
2013-02-06 23:11:00,46.4,43.9,30.17,East,101,0.0,0.0,91,0.00,,,0.00,Wunderground v.1.15,2013-02-07 04:11:00,
2013-02-06 23:21:00,46.5,44.3,30.18,East,101,0.0,0.0,92,0.00,,,0.00,Wunderground v.1.15,2013-02-07 04:21:00,
2013-02-06 23:26:00,46.9,44.7,30.18,East,101,0.0,0.0,92,0.00,,,0.00,Wunderground v.1.15,2013-02-07 04:26:00,
2013-02-06 23:36:00,46.6,44.4,30.17,East,101,0.0,0.0,92,0.00,,,0.00,Wunderground v.1.15,2013-02-07 04:36:00,
2013-02-06 23:41:00,46.9,45.0,30.16,East,101,0.0,0.0,93,0.00,,,0.00,Wunderground v.1.15,2013-02-07 04:41:00,
2013-02-06 23:51:00,45.6,43.4,30.16,East,101,0.0,0.0,92,0.00,,,0.00,Wunderground v.1.15,2013-02-07 04:51:00,
2013-02-06 23:56:00,45.2,43.0,30.16,East,101,0.0,0.0,92,0.00,,,0.00,Wunderground v.1.15,2013-02-07 04:56:00,